This is the latest recevied weather packets stored in our database for station/object AD8BW. If no packets are shown the sender has not sent any weather packets the latest 10 day(s).
| Time | Temp. | Humidity | Pressure | Rain* | Wind** | Luminosity | Snow |
|---|---|---|---|---|---|---|---|
| 1777083670 | 10.56° C | 94% | 1007.4 hPa | 0.51 mm | - | 0 W/m² | - |
| 1777083064 | 10.56° C | 94% | 1007.5 hPa | 0.51 mm | - | 0 W/m² | - |
| 1777082462 | 11.11° C | 94% | 1007.3 hPa | 0.25 mm | - | 0 W/m² | - |
| 1777081859 | 11.67° C | 94% | 1007.2 hPa | 0.25 mm | - | 0 W/m² | - |
| 1777081260 | 11.67° C | 94% | 1007.3 hPa | 0.25 mm | - | 0 W/m² | - |
| 1777080662 | 12.22° C | 94% | 1007.3 hPa | 0.25 mm | - | 0 W/m² | - |
| 1777080059 | 12.22° C | 95% | 1007 hPa | 0.25 mm | - | 0 W/m² | - |
| 1777079461 | 12.22° C | 95% | 1007.2 hPa | 0 mm | - | 0 W/m² | - |
| 1777078862 | 12.22° C | 95% | 1006.8 hPa | 0 mm | - | 0 W/m² | - |
| 1777078261 | 12.22° C | 94% | 1006.5 hPa | 0 mm | - | 0 W/m² | - |
| 1777077656 | 12.22° C | 94% | 1006.4 hPa | 0.25 mm | - | 0 W/m² | - |
| 1777077056 | 12.22° C | 94% | 1006.3 hPa | 0.25 mm | - | 0 W/m² | - |
| 1777076454 | 12.22° C | 94% | 1006.3 hPa | 0.25 mm | - | 0 W/m² | - |
| 1777075856 | 12.78° C | 94% | 1006.3 hPa | 0.25 mm | - | 0 W/m² | - |
| 1777075256 | 12.78° C | 94% | 1006.5 hPa | 0.25 mm | - | 0 W/m² | - |
| 1777074656 | 13.33° C | 94% | 1006.6 hPa | 0.25 mm | - | 5 W/m² | - |
| 1777074058 | 13.33° C | 94% | 1006.6 hPa | 0.25 mm | - | 16 W/m² | - |
| 1777073457 | 13.33° C | 94% | 1006.7 hPa | 0.25 mm | - | 12 W/m² | - |
| 1777072854 | 13.33° C | 94% | 1006.5 hPa | 1.02 mm | - | 11 W/m² | - |
| 1777072252 | 13.33° C | 93% | 1006.6 hPa | 1.27 mm | - | 12 W/m² | - |
| 1777071650 | 13.33° C | 93% | 1006.5 hPa | 1.52 mm | - | 7 W/m² | - |
| 1777071048 | 13.33° C | 94% | 1006.2 hPa | 1.52 mm | - | 11 W/m² | - |
| 1777070448 | 13.89° C | 93% | 1006 hPa | 2.03 mm | - | 11 W/m² | - |
| 1777069846 | 13.89° C | 93% | 1006.2 hPa | 3.3 mm | - | 11 W/m² | - |
| 1777069247 | 14.44° C | 93% | 1005.9 hPa | 5.84 mm | - | 12 W/m² | - |
* Rain latest hour (hover to see other rain measurements)
** Current wind speed in m/s (hover to see current wind gust speed)